Location: Te Maire Creek
(41.1333°S, 175.9167°E)
Time: 22:12:52
(UTC+00:00)

SL-16 R/B - Pass Details

Date: 19 May 2024
Orbit: 842 x 845 km, 71.0° (Epoch: 22 June)

Event Time Altitude Azimuth Distance (km) Brightness Sun altitude
Rises 16:34:06 0° 359° (N) 3,394 5.3 -31.4°
Reaches altitude 10° 16:36:39 10° 6° (N) 2,466 4.7 -30.9°
Maximum altitude 16:41:54 41° 74° (ENE) 1,228 3.4 -29.9°
Drops below altitude 10° 16:47:13 10° 142° (SE) 2,493 5.0 -28.9°
Sets 16:49:48 0° 149° (SSE) 3,435 5.7 -28.4°
